Date String (YYYY-MM-DD hh:mm:ss) UTC,Instrument flags,Ambient pressure (hPa),Sample flow (lpm),Bypass flow (lpm),Sample temperature (°C),Ambient temperature (°C),ASC tube jacket temperature (°C),LED temperature (°C),Box temperature (°C),Sample RH (%),Span deviation,Mass concentration (μg/m³),Mass concentration (μg/m³),Mass concentration (μg/m³)
DateTimeUTC,F1_M11,P_M11,Q1_M11,Q2_M11,T1_M11,T2_M11,T3_M11,T4_M11,T5_M11,U1_M11,ZSPAN_M11,X0_M11,X2_M11,X1_M11
2022-08-06 11:00:00,,0829.2,5.01,0.00,29.5,27.0,00.0,38.3,31.1,34.2,0000.0,0011.32,0004.53,0003.56
2022-08-06 11:01:00,,0829.2,4.99,0.00,29.4,27.1,00.0,38.3,31.2,34.3,0000.0,0011.02,0004.50,0003.56
2022-08-06 11:02:00,,0829.2,5.01,0.00,29.4,27.3,00.0,38.3,31.2,34.3,0000.0,0010.48,0004.48,0003.56
2022-08-06 11:03:00,,0829.3,4.99,0.00,29.4,27.4,00.0,38.2,31.2,34.4,0000.0,0010.08,0004.47,0003.57
2022-08-06 11:04:00,,0829.2,5.01,0.00,29.4,27.6,00.0,38.2,31.2,34.4,0000.0,0009.73,0004.41,0003.55
2022-08-06 11:05:00,,0829.2,5.00,0.00,29.4,27.8,00.0,38.2,31.3,34.3,0000.0,0009.67,0004.39,0003.55
2022-08-06 11:06:00,,0829.3,5.00,0.00,29.4,27.9,00.0,38.2,31.3,34.3,0000.0,0009.70,0004.38,0003.55
2022-08-06 11:07:00,,0829.3,5.00,0.00,29.4,28.0,00.0,38.2,31.3,34.2,0000.0,0009.67,0004.40,0003.54
2022-08-06 11:08:00,,0829.4,5.00,0.00,29.4,28.1,00.0,38.2,31.4,34.2,0000.0,0008.95,0004.37,0003.54
2022-08-06 11:09:00,,0829.4,4.99,0.00,29.4,28.2,00.0,38.3,31.4,34.2,0000.0,0008.60,0004.29,0003.53
2022-08-06 11:10:00,,0829.5,5.01,0.00,29.5,28.3,00.0,38.3,31.4,34.1,0000.0,0008.53,0004.29,0003.52
2022-08-06 11:11:00,,0829.5,5.00,0.00,29.5,28.4,00.0,38.3,31.5,34.2,0000.0,0008.40,0004.28,0003.52
2022-08-06 11:12:00,,0829.5,4.99,0.00,29.5,28.5,00.0,38.3,31.5,34.1,0000.0,0008.87,0004.29,0003.52
2022-08-06 11:13:00,,0829.5,5.00,0.00,29.6,28.6,00.0,38.3,31.5,34.1,0000.0,0008.97,0004.28,0003.52
2022-08-06 11:14:00,,0829.5,5.00,0.00,29.6,28.6,00.0,38.3,31.6,34.1,0000.0,0008.81,0004.24,0003.52
2022-08-06 11:15:00,,0829.5,5.00,0.00,29.6,28.7,00.0,38.4,31.6,34.1,0000.0,0008.82,0004.23,0003.52
2022-08-06 11:16:00,,0829.5,5.00,0.00,29.6,28.7,00.0,38.4,31.7,34.0,0000.0,0008.62,0004.18,0003.51
2022-08-06 11:17:00,,0829.5,5.00,0.00,29.7,28.8,00.0,38.4,31.7,34.0,0000.0,0008.70,0004.24,0003.51
2022-08-06 11:18:00,,0829.5,5.01,0.00,29.7,28.7,00.0,38.4,31.7,33.9,0000.0,0008.38,0004.20,0003.50
2022-08-06 11:19:00,,0829.5,4.99,0.00,29.7,28.0,00.0,38.4,31.5,33.9,0000.0,0008.35,0004.17,0003.50
2022-08-06 11:20:00,,0829.5,5.01,0.00,29.6,27.6,00.0,38.4,31.5,34.0,0000.0,0008.28,0004.15,0003.50
2022-08-06 11:21:00,,0829.4,5.01,0.00,29.6,27.5,00.0,38.3,31.4,34.2,0000.0,0008.24,0004.13,0003.51
2022-08-06 11:22:00,,0829.5,4.99,0.00,29.5,27.5,00.0,38.3,31.3,34.4,0000.0,0008.38,0004.16,0003.51
2022-08-06 11:23:00,,0829.5,5.00,0.00,29.5,27.7,00.0,38.3,31.3,34.4,0000.0,0007.93,0004.16,0003.51
2022-08-06 11:24:00,,0829.5,4.99,0.00,29.5,27.8,00.0,38.3,31.4,34.5,0000.0,0007.58,0004.13,0003.50
2022-08-06 11:25:00,,0829.5,5.01,0.00,29.5,27.9,00.0,38.3,31.4,34.5,0000.0,0007.61,0004.13,0003.51
2022-08-06 11:26:00,,0829.5,4.99,0.00,29.5,28.1,00.0,38.3,31.4,34.5,0000.0,0007.73,0004.15,0003.51
2022-08-06 11:27:00,,0829.5,4.99,0.00,29.5,28.2,00.0,38.3,31.4,34.4,0000.0,0008.40,0004.17,0003.52
2022-08-06 11:28:00,,0829.5,5.00,0.00,29.5,28.3,00.0,38.3,31.5,34.4,0000.0,0008.49,0004.13,0003.52
2022-08-06 11:29:00,,0829.5,5.01,0.00,29.6,28.4,00.0,38.4,31.5,34.4,0000.0,0008.38,0004.12,0003.52
2022-08-06 11:30:00,,0829.5,5.01,0.00,29.6,28.5,00.0,38.4,31.5,34.4,0000.0,0008.26,0004.10,0003.52
2022-08-06 11:31:00,,0829.5,5.00,0.00,29.6,28.5,00.0,38.4,31.6,34.3,0000.0,0008.33,0004.12,0003.53
2022-08-06 11:32:00,,0829.5,5.00,0.00,29.6,28.6,00.0,38.4,31.6,34.3,0000.0,0008.27,0004.10,0003.52
2022-08-06 11:33:00,,0829.5,5.01,0.00,29.7,28.7,00.0,38.4,31.7,34.2,0000.0,0008.20,0004.08,0003.52
2022-08-06 11:34:00,,0829.5,5.01,0.00,29.7,28.7,00.0,38.4,31.7,34.2,0000.0,0008.15,0004.04,0003.52
2022-08-06 11:35:00,,0829.6,5.00,0.00,29.7,28.8,00.0,38.5,31.7,34.2,0000.0,0008.39,0004.04,0003.52
2022-08-06 11:36:00,,0829.5,5.00,0.00,29.7,28.5,00.0,38.5,31.6,34.1,0000.0,0008.95,0004.05,0003.52
2022-08-06 11:37:00,,0829.5,4.99,0.00,29.7,27.8,00.0,38.4,31.5,34.2,0000.0,0008.99,0004.08,0003.52
2022-08-06 11:38:00,,0829.5,5.01,0.00,29.7,27.6,00.0,38.4,31.4,34.3,0000.0,0008.80,0004.09,0003.53
2022-08-06 11:39:00,,0829.5,4.99,0.00,29.6,27.6,00.0,38.4,31.3,34.4,0000.0,0008.04,0004.10,0003.52
2022-08-06 11:40:00,,0829.5,5.01,0.00,29.5,27.6,00.0,38.4,31.3,34.6,0000.0,0008.11,0004.12,0003.53
2022-08-06 11:41:00,,0829.6,4.99,0.00,29.5,27.7,00.0,38.3,31.3,34.6,0000.0,0008.20,0004.15,0003.55
2022-08-06 11:42:00,,0829.5,4.99,0.00,29.5,27.9,00.0,38.4,31.3,34.6,0000.0,0008.33,0004.20,0003.55
2022-08-06 11:43:00,,0829.5,5.00,0.00,29.5,28.0,00.0,38.4,31.4,34.6,0000.0,0008.35,0004.22,0003.55
2022-08-06 11:44:00,,0829.5,5.01,0.00,29.5,28.1,00.0,38.4,31.4,34.5,0000.0,0008.33,0004.22,0003.56
2022-08-06 11:45:00,,0829.5,5.00,0.00,29.5,28.2,00.0,38.4,31.5,34.5,0000.0,0008.41,0004.25,0003.57
2022-08-06 11:46:00,,0829.5,5.00,0.00,29.6,28.3,00.0,38.4,31.5,34.4,0000.0,0008.39,0004.26,0003.56
2022-08-06 11:47:00,,0829.5,4.99,0.00,29.6,28.4,00.0,38.4,31.5,34.4,0000.0,0007.70,0004.26,0003.56
2022-08-06 11:48:00,,0829.6,5.00,0.00,29.6,28.5,00.0,38.4,31.6,34.3,0000.0,0007.69,0004.27,0003.57
2022-08-06 11:49:00,,0829.6,5.00,0.00,29.6,28.6,00.0,38.4,31.6,34.2,0000.0,0008.02,0004.26,0003.57
2022-08-06 11:50:00,,0829.6,5.00,0.00,29.7,28.7,00.0,38.4,31.6,34.1,0000.0,0008.08,0004.28,0003.58
2022-08-06 11:51:00,,0829.6,5.00,0.00,29.7,28.7,00.0,38.4,31.7,34.1,0000.0,0008.19,0004.32,0003.60
2022-08-06 11:52:00,,0829.6,5.00,0.00,29.7,28.8,00.0,38.5,31.7,34.0,0000.0,0008.36,0004.37,0003.61
2022-08-06 11:53:00,,0829.8,5.00,0.00,29.7,28.5,00.0,38.5,31.6,33.9,0000.0,0008.42,0004.38,0003.62
2022-08-06 11:54:00,,0829.7,5.00,0.00,29.7,27.8,00.0,38.4,31.5,34.0,0000.0,0008.86,0004.46,0003.63
2022-08-06 11:55:00,,0829.6,5.00,0.00,29.7,27.5,00.0,38.4,31.4,34.0,0000.0,0009.42,0004.53,0003.64
2022-08-06 11:56:00,,0829.6,5.00,0.00,29.6,27.5,00.0,38.4,31.3,34.2,0000.0,0009.40,0004.55,0003.65
2022-08-06 11:57:00,,0829.7,4.99,0.00,29.5,27.6,00.0,38.4,31.3,34.3,0000.0,0009.46,0004.59,0003.67
2022-08-06 11:58:00,,0829.7,5.00,0.00,29.5,27.7,00.0,38.4,31.3,34.3,0000.0,0009.62,0004.60,0003.69
2022-08-06 11:59:00,,0829.7,5.00,0.00,29.5,27.8,00.0,38.4,31.4,34.3,0000.0,0009.67,0004.59,0003.69
